Location: Battersea Observatory
(44.4318°N, 76.3841°W)
Time: 21:38:28
(UTC-04:00)

Altair - Visible Passes

Search period start: 17 August 2022 00:00
Search period end: 27 August 2022 00:00
Orbit: 1502 x 1682 km, 47.2° (Epoch: 16 August)

Date Brightness Start Highest point End Pass type
(mag) Time Alt. Az. Time Alt. Az. Time Alt. Az.
17 Aug 7.3 00:34:55 10° WNW 00:44:13 64° SSW 00:44:18 64° SSW visible
17 Aug 9.1 02:40:55 10° W 02:42:15 14° W 02:42:15 14° W visible
17 Aug 7.6 22:04:32 10° W 22:14:16 77° N 22:21:51 18° E visible
18 Aug 7.3 00:09:41 10° WNW 00:19:04 68° SSW 00:19:49 66° S visible
18 Aug 9.0 02:15:29 10° W 02:17:47 16° W 02:17:47 16° W visible
18 Aug 7.6 21:39:16 10° W 21:49:02 76° N 21:57:26 14° E visible
18 Aug 7.3 23:44:27 10° WNW 23:53:56 72° SSW 23:55:25 62° SSE visible
19 Aug 8.8 01:50:05 10° WNW 01:53:23 20° W 01:53:23 20° W visible
19 Aug 7.7 21:14:00 10° W 21:23:49 76° N 21:33:05 11° E visible
19 Aug 7.3 23:19:13 10° WNW 23:28:46 75° SSW 23:31:03 56° SE visible
20 Aug 8.7 01:24:43 10° WNW 01:29:02 24° W 01:29:02 24° W visible
20 Aug 7.7 20:48:44 10° W 20:58:34 76° N 21:08:01 10° E visible
20 Aug 7.4 22:53:59 10° WNW 23:03:36 79° SSW 23:06:46 48° SE visible
21 Aug 8.5 00:59:22 10° WNW 01:04:44 28° WSW 01:04:44 28° WSW visible
21 Aug 7.8 20:23:27 10° W 20:33:19 76° N 20:42:49 10° E visible
21 Aug 7.4 22:28:45 10° WNW 22:38:26 82° SSW 22:42:31 40° ESE visible
22 Aug 8.3 00:34:03 10° WNW 00:40:30 33° WSW 00:40:30 33° WSW visible
22 Aug 7.4 22:03:30 10° WNW 22:13:15 85° SSW 22:18:18 32° ESE visible
23 Aug 8.1 00:08:44 10° WNW 00:16:17 37° SW 00:16:17 37° SW visible
23 Aug 7.5 21:38:16 10° WNW 21:48:03 88° SSW 21:54:08 26° ESE visible
23 Aug 7.9 23:43:27 10° WNW 23:52:07 41° SW 23:52:07 41° SW visible
24 Aug 7.5 21:13:00 10° WNW 21:22:51 89° NNE 21:30:01 20° ESE visible
24 Aug 7.8 23:18:10 10° WNW 23:27:02 44° SW 23:28:00 43° SSW visible
25 Aug 7.6 20:47:45 10° WNW 20:57:38 87° NNE 21:05:55 15° ESE visible
25 Aug 7.8 22:52:54 10° WNW 23:01:56 48° SW 23:03:55 42° S visible
26 Aug 9.3 01:01:08 10° W 01:01:55 11° WSW 01:01:55 11° WSW visible
26 Aug 7.6 20:22:30 10° WNW 20:32:25 85° NNE 20:41:53 10° ESE visible
26 Aug 7.8 22:27:38 10° WNW 22:36:50 51° SW 22:39:53 39° S visible
